TimeCST,TemperatureF,Dew PointF,Humidity,Sea Level PressureIn,VisibilityMPH,Wind Direction,Wind SpeedMPH,Gust SpeedMPH,PrecipitationIn,Events,Conditions,WindDirDegrees,DateUTC
12:00 AM,69,67,92,29.83,12,East,5.8,,,,Scattered Clouds,90,2011-12-11 06:00:00
12:00 AM,69.8,62.6,78,29.96,6.2,East,5.8,-,N/A,,Mostly Cloudy,90,2011-12-11 06:00:00
1:00 AM,68.0,62.6,83,29.94,6.2,East,3.5,-,N/A,,Mostly Cloudy,90,2011-12-11 07:00:00
2:00 AM,69.8,62.6,78,29.93,6.2,East,4.6,-,N/A,,Scattered Clouds,90,2011-12-11 08:00:00
3:00 AM,69,62,73,29.79,12,East,10.4,,,,Scattered Clouds,100,2011-12-11 09:00:00
3:00 AM,69.8,62.6,78,29.92,-9999.0,East,10.4,-,N/A,,Clear,100,2011-12-11 09:00:00
4:00 AM,69.8,62.6,78,29.91,6.2,ESE,9.2,-,N/A,,Unknown,110,2011-12-11 10:00:00
5:00 AM,68.0,62.6,83,29.91,6.2,North,5.8,-,N/A,,Unknown,350,2011-12-11 11:00:00
6:00 AM,69.8,62.6,78,29.92,6.2,ENE,9.2,-,N/A,,Scattered Clouds,60,2011-12-11 12:00:00
7:00 AM,71.6,62.6,73,29.94,6.2,East,6.9,-,N/A,,Scattered Clouds,100,2011-12-11 13:00:00
8:00 AM,73.4,64.4,73,29.97,6.2,East,10.4,-,N/A,,Scattered Clouds,90,2011-12-11 14:00:00
9:00 AM,79,64,51,29.83,9,ESE,6.9,,,,Partly Cloudy,110,2011-12-11 15:00:00
9:00 AM,78.8,64.4,61,29.95,6.2,ESE,6.9,-,N/A,,Scattered Clouds,110,2011-12-11 15:00:00
10:00 AM,78.8,64.4,61,29.95,6.2,ESE,6.9,-,N/A,,Scattered Clouds,110,2011-12-11 16:00:00
11:00 AM,77.0,64.4,65,29.95,6.2,Variable,3.5,-,N/A,,Mostly Cloudy,0,2011-12-11 17:00:00
12:00 PM,75.2,66.2,73,29.93,6.2,SE,6.9,-,N/A,,Mostly Cloudy,130,2011-12-11 18:00:00
1:00 PM,75.2,64.4,69,29.90,6.2,ESE,9.2,-,N/A,,Scattered Clouds,120,2011-12-11 19:00:00
1:45 PM,73.4,66.2,78,29.89,6.2,ESE,8.1,-,N/A,Rain,Light Rain,120,2011-12-11 19:45:00
2:00 PM,73.4,66.2,78,29.89,6.2,ESE,6.9,-,N/A,Rain,Light Rain,110,2011-12-11 20:00:00
3:00 PM,71,66,79,29.78,9,SE,8.1,,,Rain,Light Rain,130,2011-12-11 21:00:00
3:00 PM,71.6,66.2,83,29.88,6.2,SE,8.1,-,N/A,Rain,Light Rain,130,2011-12-11 21:00:00
4:00 PM,73.4,64.4,73,29.87,6.2,ESE,6.9,-,N/A,,Mostly Cloudy,120,2011-12-11 22:00:00
5:00 PM,71.6,64.4,78,29.90,6.2,ESE,6.9,-,N/A,Rain,Light Rain,120,2011-12-11 23:00:00
6:00 PM,70,64,75,29.81,12,ESE,5.8,,,,Scattered Clouds,120,2011-12-12 00:00:00
6:00 PM,69.8,64.4,83,29.92,6.2,ESE,5.8,-,N/A,,Mostly Cloudy,120,2011-12-12 00:00:00
7:00 PM,68.0,64.4,88,29.95,6.2,East,3.5,-,N/A,,Scattered Clouds,80,2011-12-12 01:00:00
8:00 PM,68.0,64.4,88,29.97,6.2,East,6.9,-,N/A,Rain,Light Rain,100,2011-12-12 02:00:00
9:00 PM,66.2,64.4,94,30.01,5.0,ENE,4.6,-,N/A,Rain,Light Rain,70,2011-12-12 03:00:00
10:00 PM,66.2,64.4,94,30.00,5.0,SE,5.8,-,N/A,Rain,Light Rain,130,2011-12-12 04:00:00
11:00 PM,66.2,64.4,94,30.00,5.0,NNE,5.8,-,N/A,Rain,Light Rain,20,2011-12-12 05:00:00